Location: Bartlow
(52.0833°N, 0.3167°E)
Time: 11:54:08
(UTC+00:00)

Cosmos 2266 Rocket - Pass Details

Date: 23 April 2024
Orbit: 934 x 1006 km, 82.9° (Epoch: 25 May)

Event Time Altitude Azimuth Distance (km) Brightness Sun altitude
Exits shadow 03:32:16 - 192° (SSW) 3,254 6.3 -10.4°
Reaches altitude 10° 03:33:51 10° 193° (SSW) 2,646 5.8 -10.2°
Maximum altitude 03:39:54 81° 280° (W) 954 3.9 -9.5°
Drops below altitude 10° 03:45:59 10° 9° (N) 2,661 6.9 -8.7°
Sets 03:48:29 0° 10° (N) 3,614 7.7 -8.4°
